Tracking 31027 objects as of 18-Jul-2025
HD Live streaming from Space Station
objects crossing your sky now

CZ-2D DEB

Track CZ-2D DEB now!
10-day predictions


NORAD ID: 44609
Int'l Code: 2017-060B
Perigee: 562.7 km
Apogee: 609.3 km
Inclination: 97.6 °
Period: 96.2 minutes
Semi major axis: 6956 km
RCS: Unknown
Launch date: October 9, 2017
Source: People's Republic of China (PRC)
Launch site: Jiuquan Satellite Launch Center, China (JSC)

Note: This is SATELLITE DEBRIS
Your satellite tracking list
Your tracking list is empty




NASA's NSSDC Master Catalog

Two Line Element Set (TLE):
1 44609U 17060B   25199.49826562  .00003850  00000-0  34327-3 0  9993
2 44609  97.5604 223.7117 0033553 356.6548   3.4444 14.96134382415218
Source of the keplerian elements: AFSPC